Time,TemperatureF,DewpointF,PressureIn,WindDirection,WindDirectionDegrees,WindSpeedMPH,WindSpeedGustMPH,Humidity,HourlyPrecipIn,Conditions,Clouds,dailyrainin,SoftwareType,DateUTC
2013-01-16 00:00:00,62.8,59.5,30.31,ESE,112,0.0,0.0,89,0.00,,,0.00,WUHU21623XXSP,2013-01-16 05:00:00,
2013-01-16 00:01:00,62.8,59.5,30.31,ESE,112,0.0,0.0,89,0.00,,,0.00,WUHU21623XXSP,2013-01-16 05:01:00,
2013-01-16 00:03:00,62.8,59.5,30.31,ESE,112,0.0,0.0,89,0.00,,,0.00,WUHU21623XXSP,2013-01-16 05:03:00,
2013-01-16 00:08:00,62.8,59.5,30.30,ESE,112,0.0,0.0,89,0.00,,,0.00,WUHU21623XXSP,2013-01-16 05:08:00,
2013-01-16 00:13:00,63.0,60.0,30.30,ESE,112,0.0,0.0,90,0.00,,,0.00,WUHU21623XXSP,2013-01-16 05:13:00,
2013-01-16 00:18:00,63.2,60.2,30.30,ESE,112,0.0,0.0,90,0.00,,,0.00,WUHU21623XXSP,2013-01-16 05:18:00,
2013-01-16 00:23:00,63.4,60.4,30.30,ESE,112,0.0,0.0,90,0.00,,,0.00,WUHU21623XXSP,2013-01-16 05:23:00,
2013-01-16 00:28:00,63.4,60.4,30.30,ESE,112,0.0,0.0,90,0.00,,,0.00,WUHU21623XXSP,2013-01-16 05:28:00,
2013-01-16 00:33:00,63.4,60.4,30.30,ESE,112,0.0,0.0,90,0.00,,,0.00,WUHU21623XXSP,2013-01-16 05:33:00,
2013-01-16 00:38:00,63.2,60.2,30.30,ESE,112,0.0,0.0,90,0.00,,,0.00,WUHU21623XXSP,2013-01-16 05:38:00,
2013-01-16 00:43:00,63.2,60.2,30.30,ESE,112,0.0,0.0,90,0.00,,,0.00,WUHU21623XXSP,2013-01-16 05:43:00,
2013-01-16 00:48:00,63.0,60.0,30.30,ESE,112,0.0,0.0,90,0.00,,,0.00,WUHU21623XXSP,2013-01-16 05:48:00,
2013-01-16 00:53:00,63.0,60.0,30.31,ESE,112,0.0,0.0,90,0.00,,,0.00,WUHU21623XXSP,2013-01-16 05:53:00,
2013-01-16 00:58:00,63.0,60.0,30.31,ESE,112,0.0,0.0,90,0.00,,,0.00,WUHU21623XXSP,2013-01-16 05:58:00,
2013-01-16 01:03:00,62.8,59.8,30.30,ESE,112,0.0,0.0,90,0.00,,,0.00,WUHU21623XXSP,2013-01-16 06:03:00,
2013-01-16 01:08:00,62.5,59.5,30.30,ESE,112,0.0,0.0,90,0.00,,,0.00,WUHU21623XXSP,2013-01-16 06:08:00,
2013-01-16 01:13:00,62.3,59.3,30.31,ESE,112,0.0,0.0,90,0.00,,,0.00,WUHU21623XXSP,2013-01-16 06:13:00,
2013-01-16 01:18:00,62.1,59.1,30.31,ESE,112,0.0,0.0,90,0.00,,,0.00,WUHU21623XXSP,2013-01-16 06:18:00,
2013-01-16 01:23:00,61.9,58.9,30.31,ESE,112,0.0,0.0,90,0.00,,,0.00,WUHU21623XXSP,2013-01-16 06:23:00,
2013-01-16 01:28:00,61.8,58.8,30.31,ESE,112,0.0,0.0,90,0.00,,,0.00,WUHU21623XXSP,2013-01-16 06:28:00,
2013-01-16 01:33:00,61.6,58.6,30.31,ESE,112,0.0,0.0,90,0.00,,,0.00,WUHU21623XXSP,2013-01-16 06:33:00,
2013-01-16 01:38:00,61.6,58.6,30.30,ESE,112,0.0,0.0,90,0.00,,,0.00,WUHU21623XXSP,2013-01-16 06:38:00,
2013-01-16 01:43:00,61.2,58.2,30.31,ESE,112,0.0,0.0,90,0.00,,,0.00,WUHU21623XXSP,2013-01-16 06:43:00,
2013-01-16 01:48:00,61.2,58.2,30.31,ESE,112,0.0,0.0,90,0.00,,,0.00,WUHU21623XXSP,2013-01-16 06:48:00,
2013-01-16 01:53:00,61.0,58.3,30.31,ESE,112,0.0,0.0,91,0.00,,,0.00,WUHU21623XXSP,2013-01-16 06:53:00,
2013-01-16 01:58:00,61.0,58.3,30.30,ESE,112,0.0,0.0,91,0.00,,,0.00,WUHU21623XXSP,2013-01-16 06:58:00,
2013-01-16 02:03:00,60.7,58.0,30.30,ESE,112,0.0,0.0,91,0.00,,,0.00,WUHU21623XXSP,2013-01-16 07:03:00,
2013-01-16 02:08:00,60.7,58.0,30.30,ESE,112,0.0,0.0,91,0.00,,,0.00,WUHU21623XXSP,2013-01-16 07:08:00,
2013-01-16 02:14:00,60.7,58.0,30.30,ESE,112,0.0,0.0,91,0.00,,,0.00,WUHU21623XXSP,2013-01-16 07:14:00,
2013-01-16 02:19:00,60.7,58.0,30.30,ESE,112,0.0,0.0,91,0.00,,,0.00,WUHU21623XXSP,2013-01-16 07:19:00,
2013-01-16 02:24:00,60.5,57.8,30.30,ESE,112,0.0,0.0,91,0.00,,,0.00,WUHU21623XXSP,2013-01-16 07:24:00,
2013-01-16 02:29:00,60.3,57.6,30.30,ESE,112,0.0,0.0,91,0.00,,,0.00,WUHU21623XXSP,2013-01-16 07:29:00,
2013-01-16 02:34:00,60.1,57.4,30.30,ESE,112,0.0,0.0,91,0.00,,,0.00,WUHU21623XXSP,2013-01-16 07:34:00,
2013-01-16 02:39:00,60.1,57.4,30.29,ESE,112,0.0,0.0,91,0.00,,,0.00,WUHU21623XXSP,2013-01-16 07:39:00,
2013-01-16 02:44:00,60.1,57.4,30.30,ESE,112,0.0,0.0,91,0.00,,,0.00,WUHU21623XXSP,2013-01-16 07:44:00,
2013-01-16 02:49:00,60.1,57.4,30.29,ESE,112,0.0,0.0,91,0.00,,,0.00,WUHU21623XXSP,2013-01-16 07:49:00,
2013-01-16 02:54:00,60.1,57.7,30.29,ESE,112,0.0,0.0,92,0.00,,,0.00,WUHU21623XXSP,2013-01-16 07:54:00,
2013-01-16 02:59:00,60.3,57.9,30.29,ESE,112,0.0,0.0,92,0.00,,,0.00,WUHU21623XXSP,2013-01-16 07:59:00,
2013-01-16 03:04:00,60.7,58.3,30.29,SE,135,0.0,0.0,92,0.00,,,0.00,WUHU21623XXSP,2013-01-16 08:04:00,
2013-01-16 03:09:00,61.0,58.6,30.29,SE,135,0.0,0.0,92,0.00,,,0.00,WUHU21623XXSP,2013-01-16 08:09:00,
2013-01-16 03:14:00,61.2,58.8,30.29,SE,135,0.0,0.0,92,0.00,,,0.00,WUHU21623XXSP,2013-01-16 08:14:00,
2013-01-16 03:19:00,61.2,58.8,30.29,SE,135,0.0,0.0,92,0.00,,,0.00,WUHU21623XXSP,2013-01-16 08:19:00,
2013-01-16 03:24:00,61.4,59.0,30.29,SE,135,0.0,0.0,92,0.00,,,0.00,WUHU21623XXSP,2013-01-16 08:24:00,
2013-01-16 03:29:00,61.2,58.8,30.29,SE,135,0.0,0.0,92,0.00,,,0.00,WUHU21623XXSP,2013-01-16 08:29:00,
2013-01-16 03:34:00,61.4,59.0,30.29,SE,135,0.0,0.0,92,0.00,,,0.00,WUHU21623XXSP,2013-01-16 08:34:00,
2013-01-16 03:39:00,61.8,59.4,30.29,SE,135,0.0,0.0,92,0.00,,,0.00,WUHU21623XXSP,2013-01-16 08:39:00,
2013-01-16 03:44:00,61.8,59.7,30.29,SE,135,0.0,0.0,93,0.00,,,0.00,WUHU21623XXSP,2013-01-16 08:44:00,
2013-01-16 03:49:00,61.8,59.7,30.29,ESE,112,0.0,0.0,93,0.00,,,0.00,WUHU21623XXSP,2013-01-16 08:49:00,
2013-01-16 03:54:00,61.9,59.8,30.29,ESE,112,0.0,0.0,93,0.00,,,0.00,WUHU21623XXSP,2013-01-16 08:54:00,
2013-01-16 03:59:00,62.1,60.0,30.29,ESE,112,0.0,0.0,93,0.00,,,0.00,WUHU21623XXSP,2013-01-16 08:59:00,
2013-01-16 04:04:00,62.1,60.0,30.29,ESE,112,0.0,0.0,93,0.00,,,0.00,WUHU21623XXSP,2013-01-16 09:04:00,
2013-01-16 04:09:00,62.1,60.0,30.29,SE,135,0.0,0.0,93,0.00,,,0.00,WUHU21623XXSP,2013-01-16 09:09:00,
2013-01-16 04:14:00,61.9,59.8,30.29,SE,135,0.0,0.0,93,0.00,,,0.00,WUHU21623XXSP,2013-01-16 09:14:00,
2013-01-16 04:19:00,61.9,59.8,30.29,SE,135,0.0,0.0,93,0.00,,,0.00,WUHU21623XXSP,2013-01-16 09:19:00,
2013-01-16 04:24:00,61.9,59.8,30.29,SE,135,0.0,0.0,93,0.00,,,0.00,WUHU21623XXSP,2013-01-16 09:24:00,
2013-01-16 04:29:00,61.9,59.8,30.29,SE,135,0.0,0.0,93,0.00,,,0.00,WUHU21623XXSP,2013-01-16 09:29:00,
2013-01-16 04:34:00,61.6,59.5,30.28,SE,135,0.0,0.0,93,0.00,,,0.00,WUHU21623XXSP,2013-01-16 09:34:00,
2013-01-16 04:39:00,61.8,59.7,30.29,SE,135,0.0,0.0,93,0.00,,,0.00,WUHU21623XXSP,2013-01-16 09:39:00,
2013-01-16 04:44:00,61.9,59.8,30.29,SE,135,0.0,0.0,93,0.00,,,0.00,WUHU21623XXSP,2013-01-16 09:44:00,
2013-01-16 04:49:00,61.9,59.8,30.29,SE,135,0.0,0.0,93,0.00,,,0.00,WUHU21623XXSP,2013-01-16 09:49:00,
2013-01-16 04:54:00,61.8,59.7,30.29,SE,135,0.0,0.0,93,0.00,,,0.00,WUHU21623XXSP,2013-01-16 09:54:00,
2013-01-16 04:59:00,61.6,59.5,30.29,SE,135,0.0,0.0,93,0.00,,,0.00,WUHU21623XXSP,2013-01-16 09:59:00,
2013-01-16 05:04:00,61.2,59.1,30.29,SE,135,0.0,0.0,93,0.00,,,0.00,WUHU21623XXSP,2013-01-16 10:04:00,
2013-01-16 05:09:00,61.2,59.1,30.29,SE,135,0.0,0.0,93,0.00,,,0.00,WUHU21623XXSP,2013-01-16 10:09:00,
2013-01-16 05:14:00,61.2,59.1,30.28,SE,135,0.0,0.0,93,0.00,,,0.00,WUHU21623XXSP,2013-01-16 10:14:00,
2013-01-16 05:19:00,61.0,58.9,30.29,SE,135,0.0,0.0,93,0.00,,,0.00,WUHU21623XXSP,2013-01-16 10:19:00,
2013-01-16 05:24:00,61.0,58.9,30.29,SE,135,0.0,0.0,93,0.00,,,0.00,WUHU21623XXSP,2013-01-16 10:24:00,
2013-01-16 05:29:00,60.9,58.8,30.29,SE,135,0.0,0.0,93,0.00,,,0.00,WUHU21623XXSP,2013-01-16 10:29:00,
2013-01-16 05:34:00,60.7,58.6,30.29,SE,135,0.0,0.0,93,0.00,,,0.00,WUHU21623XXSP,2013-01-16 10:34:00,
2013-01-16 05:39:00,60.7,58.9,30.29,SE,135,0.0,0.0,94,0.00,,,0.00,WUHU21623XXSP,2013-01-16 10:39:00,
2013-01-16 05:44:00,60.9,59.1,30.29,SE,135,0.0,0.0,94,0.00,,,0.00,WUHU21623XXSP,2013-01-16 10:44:00,
2013-01-16 05:49:00,60.7,58.9,30.29,SE,135,0.0,0.0,94,0.00,,,0.00,WUHU21623XXSP,2013-01-16 10:49:00,
2013-01-16 05:54:00,60.7,58.9,30.29,SE,135,0.0,0.0,94,0.00,,,0.00,WUHU21623XXSP,2013-01-16 10:54:00,
2013-01-16 05:59:00,60.5,58.7,30.29,SE,135,0.0,0.0,94,0.00,,,0.00,WUHU21623XXSP,2013-01-16 10:59:00,
2013-01-16 06:04:00,60.3,58.5,30.30,SE,135,0.0,0.0,94,0.00,,,0.00,WUHU21623XXSP,2013-01-16 11:04:00,
2013-01-16 06:09:00,60.1,58.3,30.30,SE,135,0.0,0.0,94,0.00,,,0.00,WUHU21623XXSP,2013-01-16 11:09:00,
2013-01-16 06:14:00,60.0,58.2,30.30,SE,135,0.0,0.0,94,0.00,,,0.00,WUHU21623XXSP,2013-01-16 11:14:00,
2013-01-16 06:19:00,60.0,58.2,30.30,SE,135,0.0,0.0,94,0.00,,,0.00,WUHU21623XXSP,2013-01-16 11:19:00,
2013-01-16 06:24:00,60.0,58.2,30.30,SE,135,0.0,0.0,94,0.00,,,0.00,WUHU21623XXSP,2013-01-16 11:24:00,
2013-01-16 06:29:00,60.0,58.2,30.31,SE,135,0.0,0.0,94,0.00,,,0.00,WUHU21623XXSP,2013-01-16 11:29:00,
2013-01-16 06:34:00,59.8,58.0,30.30,SE,135,0.0,0.0,94,0.00,,,0.00,WUHU21623XXSP,2013-01-16 11:34:00,
2013-01-16 06:39:00,59.4,57.6,30.30,SE,135,0.0,0.0,94,0.00,,,0.00,WUHU21623XXSP,2013-01-16 11:39:00,
2013-01-16 06:44:00,59.4,57.6,30.30,SE,135,0.0,0.0,94,0.00,,,0.00,WUHU21623XXSP,2013-01-16 11:44:00,
2013-01-16 06:50:00,59.4,57.6,30.30,SE,135,0.0,0.0,94,0.00,,,0.00,WUHU21623XXSP,2013-01-16 11:50:00,
2013-01-16 06:55:00,59.4,57.6,30.31,SE,135,0.0,0.0,94,0.00,,,0.00,WUHU21623XXSP,2013-01-16 11:55:00,
2013-01-16 07:00:00,59.4,57.6,30.30,SE,135,0.0,0.0,94,0.00,,,0.00,WUHU21623XXSP,2013-01-16 12:00:00,
2013-01-16 07:05:00,59.4,57.6,30.31,SE,135,0.0,0.0,94,0.00,,,0.00,WUHU21623XXSP,2013-01-16 12:05:00,
2013-01-16 07:10:00,59.4,57.6,30.31,SE,135,0.0,0.0,94,0.00,,,0.00,WUHU21623XXSP,2013-01-16 12:10:00,
2013-01-16 07:15:00,59.4,57.6,30.31,SE,135,0.0,0.0,94,0.00,,,0.00,WUHU21623XXSP,2013-01-16 12:15:00,
2013-01-16 07:20:00,59.4,57.6,30.31,SE,135,0.0,0.0,94,0.00,,,0.00,WUHU21623XXSP,2013-01-16 12:20:00,
2013-01-16 07:25:00,59.2,57.4,30.31,SE,135,0.0,0.0,94,0.00,,,0.00,WUHU21623XXSP,2013-01-16 12:25:00,
2013-01-16 07:30:00,59.2,57.4,30.31,SE,135,0.0,0.0,94,0.00,,,0.00,WUHU21623XXSP,2013-01-16 12:30:00,
2013-01-16 07:35:00,59.2,57.4,30.32,SE,135,0.0,0.0,94,0.00,,,0.00,WUHU21623XXSP,2013-01-16 12:35:00,
2013-01-16 07:40:00,59.1,57.3,30.32,SE,135,0.0,0.0,94,0.00,,,0.00,WUHU21623XXSP,2013-01-16 12:40:00,
2013-01-16 07:45:00,59.1,57.3,30.32,SE,135,0.0,0.0,94,0.00,,,0.00,WUHU21623XXSP,2013-01-16 12:45:00,
2013-01-16 07:50:00,59.2,57.4,30.32,SE,135,0.0,0.0,94,0.00,,,0.00,WUHU21623XXSP,2013-01-16 12:50:00,
2013-01-16 07:55:00,59.2,57.4,30.32,SE,135,0.0,0.0,94,0.00,,,0.00,WUHU21623XXSP,2013-01-16 12:55:00,
2013-01-16 08:00:00,59.4,57.6,30.32,SE,135,0.0,0.0,94,0.00,,,0.00,WUHU21623XXSP,2013-01-16 13:00:00,
2013-01-16 08:05:00,59.6,57.8,30.32,SE,135,0.0,0.0,94,0.00,,,0.00,WUHU21623XXSP,2013-01-16 13:05:00,
2013-01-16 08:10:00,60.0,58.2,30.32,SE,135,0.0,0.0,94,0.00,,,0.00,WUHU21623XXSP,2013-01-16 13:10:00,
2013-01-16 08:15:00,60.3,58.5,30.32,SE,135,0.0,0.0,94,0.00,,,0.00,WUHU21623XXSP,2013-01-16 13:15:00,
2013-01-16 08:20:00,60.7,58.9,30.33,SE,135,0.0,0.0,94,0.00,,,0.00,WUHU21623XXSP,2013-01-16 13:20:00,
2013-01-16 08:25:00,61.2,59.7,30.33,SSE,157,0.0,0.0,95,0.00,,,0.00,WUHU21623XXSP,2013-01-16 13:25:00,
2013-01-16 08:30:00,61.6,60.1,30.33,SSE,157,0.0,0.0,95,0.00,,,0.00,WUHU21623XXSP,2013-01-16 13:30:00,
2013-01-16 08:35:00,62.1,60.6,30.33,SSE,157,0.0,0.0,95,0.00,,,0.00,WUHU21623XXSP,2013-01-16 13:35:00,
2013-01-16 08:40:00,62.5,61.0,30.32,SSE,157,0.0,0.0,95,0.00,,,0.00,WUHU21623XXSP,2013-01-16 13:40:00,
2013-01-16 08:45:00,63.0,61.5,30.33,SSE,157,0.0,0.0,95,0.00,,,0.00,WUHU21623XXSP,2013-01-16 13:45:00,
2013-01-16 08:50:00,63.7,62.2,30.33,SE,135,0.0,0.0,95,0.00,,,0.00,WUHU21623XXSP,2013-01-16 13:50:00,
2013-01-16 08:55:00,64.3,62.8,30.33,SSE,157,0.0,0.0,95,0.00,,,0.00,WUHU21623XXSP,2013-01-16 13:55:00,
2013-01-16 09:00:00,64.8,63.3,30.33,South,180,0.0,0.0,95,0.00,,,0.00,WUHU21623XXSP,2013-01-16 14:00:00,
2013-01-16 09:05:00,65.4,63.6,30.34,SE,135,0.0,0.0,94,0.00,,,0.00,WUHU21623XXSP,2013-01-16 14:05:00,
2013-01-16 09:10:00,66.1,64.3,30.34,SSE,157,0.0,0.0,94,0.00,,,0.00,WUHU21623XXSP,2013-01-16 14:10:00,
2013-01-16 09:15:00,66.6,64.5,30.34,ESE,112,0.0,0.0,93,0.00,,,0.00,WUHU21623XXSP,2013-01-16 14:15:00,
2013-01-16 09:20:00,67.3,65.2,30.34,South,180,0.0,0.0,93,0.00,,,0.00,WUHU21623XXSP,2013-01-16 14:20:00,
2013-01-16 09:25:00,67.5,65.1,30.34,SE,135,0.0,0.0,92,0.00,,,0.00,WUHU21623XXSP,2013-01-16 14:25:00,
2013-01-16 09:30:00,67.9,65.2,30.34,SSE,157,0.0,0.0,91,0.00,,,0.00,WUHU21623XXSP,2013-01-16 14:30:00,
2013-01-16 09:35:00,68.4,65.3,30.35,South,180,0.0,0.0,90,0.00,,,0.00,WUHU21623XXSP,2013-01-16 14:35:00,
2013-01-16 09:40:00,69.0,65.6,30.35,ESE,112,0.0,0.0,89,0.00,,,0.00,WUHU21623XXSP,2013-01-16 14:40:00,
2013-01-16 09:45:00,69.3,65.6,30.35,SE,135,0.0,0.0,88,0.00,,,0.00,WUHU21623XXSP,2013-01-16 14:45:00,
2013-01-16 09:50:00,70.0,65.6,30.35,SSE,157,0.0,0.0,86,0.00,,,0.00,WUHU21623XXSP,2013-01-16 14:50:00,
2013-01-16 09:55:00,70.4,65.7,30.35,SSE,157,0.0,0.0,85,0.00,,,0.00,WUHU21623XXSP,2013-01-16 14:55:00,
2013-01-16 10:00:00,70.9,65.5,30.35,SE,135,0.0,0.0,83,0.00,,,0.00,WUHU21623XXSP,2013-01-16 15:00:00,
2013-01-16 10:05:00,71.3,65.2,30.35,SSW,202,0.0,0.0,81,0.00,,,0.00,WUHU21623XXSP,2013-01-16 15:05:00,
2013-01-16 10:10:00,71.5,65.4,30.36,WSW,247,0.0,0.0,81,0.00,,,0.00,WUHU21623XXSP,2013-01-16 15:10:00,
2013-01-16 10:15:00,72.0,65.2,30.35,SSE,157,0.0,0.0,79,0.00,,,0.00,WUHU21623XXSP,2013-01-16 15:15:00,
2013-01-16 10:20:00,72.6,65.5,30.35,SW,225,0.0,0.0,78,0.00,,,0.00,WUHU21623XXSP,2013-01-16 15:20:00,
2013-01-16 10:25:00,72.9,65.0,30.35,South,180,0.0,0.0,76,0.00,,,0.00,WUHU21623XXSP,2013-01-16 15:25:00,
2013-01-16 10:30:00,73.3,65.4,30.35,SSE,157,0.0,0.0,76,0.00,,,0.00,WUHU21623XXSP,2013-01-16 15:30:00,
2013-01-16 10:35:00,73.8,65.2,30.34,SSW,202,0.0,0.0,74,0.00,,,0.00,WUHU21623XXSP,2013-01-16 15:35:00,
2013-01-16 10:40:00,74.2,65.2,30.34,SSE,157,0.0,0.0,73,0.00,,,0.00,WUHU21623XXSP,2013-01-16 15:40:00,
2013-01-16 10:45:00,74.5,65.1,30.34,SSE,157,0.0,0.0,72,0.00,,,0.00,WUHU21623XXSP,2013-01-16 15:45:00,
2013-01-16 10:50:00,74.7,64.5,30.34,SSE,157,0.0,0.0,70,0.00,,,0.00,WUHU21623XXSP,2013-01-16 15:50:00,
2013-01-16 10:55:00,74.9,64.7,30.34,South,180,0.0,0.0,70,0.00,,,0.00,WUHU21623XXSP,2013-01-16 15:55:00,
2013-01-16 11:00:00,75.4,64.7,30.34,SSW,202,0.0,0.0,69,0.00,,,0.00,WUHU21623XXSP,2013-01-16 16:00:00,
2013-01-16 11:05:00,75.6,64.5,30.34,SSW,202,0.0,0.0,68,0.00,,,0.00,WUHU21623XXSP,2013-01-16 16:05:00,
2013-01-16 11:10:00,75.8,64.7,30.33,SSW,202,0.0,0.0,68,0.00,,,0.00,WUHU21623XXSP,2013-01-16 16:10:00,
2013-01-16 11:15:00,76.2,65.1,30.33,SE,135,0.0,0.0,68,0.00,,,0.00,WUHU21623XXSP,2013-01-16 16:15:00,
2013-01-16 11:20:00,76.5,64.5,30.32,South,180,0.0,0.0,66,0.00,,,0.00,WUHU21623XXSP,2013-01-16 16:20:00,
2013-01-16 11:25:00,76.7,64.3,30.32,SE,135,0.0,0.0,65,0.00,,,0.00,WUHU21623XXSP,2013-01-16 16:25:00,
2013-01-16 11:30:00,76.9,64.5,30.32,SSE,157,0.0,0.0,65,0.00,,,0.00,WUHU21623XXSP,2013-01-16 16:30:00,
2013-01-16 11:35:00,77.2,64.3,30.32,SSW,202,0.0,0.0,64,0.00,,,0.00,WUHU21623XXSP,2013-01-16 16:35:00,
2013-01-16 11:40:00,77.4,64.0,30.32,West,270,0.0,0.0,63,0.00,,,0.00,WUHU21623XXSP,2013-01-16 16:40:00,
2013-01-16 11:45:00,77.4,63.6,30.32,West,270,0.0,0.0,62,0.00,,,0.00,WUHU21623XXSP,2013-01-16 16:45:00,
2013-01-16 11:50:00,77.6,64.2,30.32,SE,135,0.0,0.0,63,0.00,,,0.00,WUHU21623XXSP,2013-01-16 16:50:00,
2013-01-16 11:55:00,78.0,64.2,30.32,South,180,0.0,0.0,62,0.00,,,0.00,WUHU21623XXSP,2013-01-16 16:55:00,
2013-01-16 12:00:00,78.1,64.3,30.31,SSE,157,0.0,0.0,62,0.00,,,0.00,WUHU21623XXSP,2013-01-16 17:00:00,
2013-01-16 12:05:00,78.3,63.5,30.31,South,180,0.0,0.0,60,0.00,,,0.00,WUHU21623XXSP,2013-01-16 17:05:00,
2013-01-16 12:10:00,78.5,63.7,30.31,SW,225,0.0,0.0,60,0.00,,,0.00,WUHU21623XXSP,2013-01-16 17:10:00,
2013-01-16 12:15:00,78.7,62.9,30.31,SE,135,0.0,0.0,58,0.00,,,0.00,WUHU21623XXSP,2013-01-16 17:15:00,
2013-01-16 12:20:00,78.9,63.1,30.31,West,270,0.0,0.0,58,0.00,,,0.00,WUHU21623XXSP,2013-01-16 17:20:00,
2013-01-16 12:25:00,79.0,63.2,30.30,SE,135,0.0,0.0,58,0.00,,,0.00,WUHU21623XXSP,2013-01-16 17:25:00,
2013-01-16 12:30:00,79.0,62.7,30.30,SSE,157,0.0,0.0,57,0.00,,,0.00,WUHU21623XXSP,2013-01-16 17:30:00,
2013-01-16 12:35:00,79.2,62.3,30.30,SSW,202,0.0,0.0,56,0.00,,,0.00,WUHU21623XXSP,2013-01-16 17:35:00,
2013-01-16 12:40:00,79.6,62.7,30.30,SSW,202,0.0,0.0,56,0.00,,,0.00,WUHU21623XXSP,2013-01-16 17:40:00,
2013-01-16 12:45:00,79.8,62.4,30.30,South,180,0.0,0.0,55,0.00,,,0.00,WUHU21623XXSP,2013-01-16 17:45:00,
2013-01-16 12:50:00,79.6,61.7,30.29,SSW,202,0.0,0.0,54,0.00,,,0.00,WUHU21623XXSP,2013-01-16 17:50:00,
2013-01-16 12:55:00,79.2,61.3,30.29,SE,135,0.0,0.0,54,0.00,,,0.00,WUHU21623XXSP,2013-01-16 17:55:00,
2013-01-16 13:00:00,79.6,62.2,30.29,WSW,247,0.0,0.0,55,0.00,,,0.00,WUHU21623XXSP,2013-01-16 18:00:00,
2013-01-16 13:05:00,80.1,62.1,30.29,South,180,0.0,0.0,54,0.00,,,0.00,WUHU21623XXSP,2013-01-16 18:05:00,
2013-01-16 13:10:00,80.1,62.1,30.28,SSE,157,0.0,0.0,54,0.00,,,0.00,WUHU21623XXSP,2013-01-16 18:10:00,
2013-01-16 13:15:00,80.5,62.0,30.28,SW,225,0.0,0.0,53,0.00,,,0.00,WUHU21623XXSP,2013-01-16 18:15:00,
2013-01-16 13:20:00,80.8,62.2,30.28,SSW,202,0.0,0.0,53,0.00,,,0.00,WUHU21623XXSP,2013-01-16 18:20:00,
2013-01-16 13:25:00,80.7,61.6,30.27,SSW,202,0.0,0.0,52,0.00,,,0.00,WUHU21623XXSP,2013-01-16 18:25:00,
2013-01-16 13:30:00,80.8,61.7,30.27,SSE,157,0.0,0.0,52,0.00,,,0.00,WUHU21623XXSP,2013-01-16 18:30:00,
2013-01-16 13:35:00,81.0,61.9,30.28,West,270,0.0,0.0,52,0.00,,,0.00,WUHU21623XXSP,2013-01-16 18:35:00,
2013-01-16 13:40:00,81.2,61.5,30.27,SE,135,0.0,0.0,51,0.00,,,0.00,WUHU21623XXSP,2013-01-16 18:40:00,
2013-01-16 13:45:00,81.0,61.3,30.27,West,270,0.0,0.0,51,0.00,,,0.00,WUHU21623XXSP,2013-01-16 18:45:00,
2013-01-16 13:50:00,81.0,60.7,30.27,SSE,157,0.0,0.0,50,0.00,,,0.00,WUHU21623XXSP,2013-01-16 18:50:00,
2013-01-16 13:55:00,81.0,60.7,30.27,SSW,202,0.0,0.0,50,0.00,,,0.00,WUHU21623XXSP,2013-01-16 18:55:00,
2013-01-16 14:01:00,81.2,60.9,30.27,SSW,202,0.0,0.0,50,0.00,,,0.00,WUHU21623XXSP,2013-01-16 19:01:00,
2013-01-16 14:06:00,81.0,60.7,30.26,SSE,157,0.0,0.0,50,0.00,,,0.00,WUHU21623XXSP,2013-01-16 19:06:00,
2013-01-16 14:11:00,80.8,60.5,30.27,SW,225,0.0,0.0,50,0.00,,,0.00,WUHU21623XXSP,2013-01-16 19:11:00,
2013-01-16 14:16:00,80.8,60.5,30.27,WSW,247,0.0,0.0,50,0.00,,,0.00,WUHU21623XXSP,2013-01-16 19:16:00,
2013-01-16 14:21:00,80.7,61.0,30.27,South,180,0.0,0.0,51,0.00,,,0.00,WUHU21623XXSP,2013-01-16 19:21:00,
2013-01-16 14:26:00,80.5,60.8,30.26,SSW,202,0.0,0.0,51,0.00,,,0.00,WUHU21623XXSP,2013-01-16 19:26:00,
2013-01-16 14:31:00,80.7,60.5,30.26,South,180,0.0,0.0,50,0.00,,,0.00,WUHU21623XXSP,2013-01-16 19:31:00,
2013-01-16 14:36:00,80.7,60.5,30.27,SSW,202,0.0,0.0,50,0.00,,,0.00,WUHU21623XXSP,2013-01-16 19:36:00,
2013-01-16 14:41:00,80.5,59.7,30.26,SSE,157,0.0,0.0,49,0.00,,,0.00,WUHU21623XXSP,2013-01-16 19:41:00,
2013-01-16 14:46:00,80.3,59.5,30.26,SSW,202,0.0,0.0,49,0.00,,,0.00,WUHU21623XXSP,2013-01-16 19:46:00,
2013-01-16 14:51:00,80.3,60.1,30.26,South,180,0.0,0.0,50,0.00,,,0.00,WUHU21623XXSP,2013-01-16 19:51:00,
2013-01-16 14:56:00,80.3,60.1,30.26,SW,225,0.0,0.0,50,0.00,,,0.00,WUHU21623XXSP,2013-01-16 19:56:00,
2013-01-16 15:01:00,80.1,59.3,30.25,West,270,0.0,0.0,49,0.00,,,0.00,WUHU21623XXSP,2013-01-16 20:01:00,
2013-01-16 15:06:00,79.9,59.7,30.26,SW,225,0.0,0.0,50,0.00,,,0.00,WUHU21623XXSP,2013-01-16 20:06:00,
2013-01-16 15:11:00,79.9,59.7,30.26,South,180,0.0,0.0,50,0.00,,,0.00,WUHU21623XXSP,2013-01-16 20:11:00,
2013-01-16 15:16:00,79.8,59.0,30.26,WSW,247,0.0,0.0,49,0.00,,,0.00,WUHU21623XXSP,2013-01-16 20:16:00,
2013-01-16 15:21:00,79.6,59.4,30.26,South,180,0.0,0.0,50,0.00,,,0.00,WUHU21623XXSP,2013-01-16 20:21:00,
2013-01-16 15:26:00,79.6,59.4,30.26,South,180,0.0,0.0,50,0.00,,,0.00,WUHU21623XXSP,2013-01-16 20:26:00,
2013-01-16 15:31:00,79.4,59.2,30.26,WSW,247,0.0,0.0,50,0.00,,,0.00,WUHU21623XXSP,2013-01-16 20:31:00,
2013-01-16 15:36:00,79.2,59.1,30.26,SSE,157,0.0,0.0,50,0.00,,,0.00,WUHU21623XXSP,2013-01-16 20:36:00,
2013-01-16 15:41:00,79.0,59.5,30.25,WSW,247,0.0,0.0,51,0.00,,,0.00,WUHU21623XXSP,2013-01-16 20:41:00,
2013-01-16 15:46:00,78.9,59.4,30.26,West,270,0.0,0.0,51,0.00,,,0.00,WUHU21623XXSP,2013-01-16 20:46:00,
2013-01-16 15:51:00,78.7,59.2,30.26,SSE,157,0.0,0.0,51,0.00,,,0.00,WUHU21623XXSP,2013-01-16 20:51:00,
2013-01-16 15:56:00,78.5,59.0,30.26,SSW,202,0.0,0.0,51,0.00,,,0.00,WUHU21623XXSP,2013-01-16 20:56:00,
2013-01-16 16:01:00,78.5,59.5,30.26,SSW,202,0.0,0.0,52,0.00,,,0.00,WUHU21623XXSP,2013-01-16 21:01:00,
2013-01-16 16:06:00,78.3,59.4,30.26,South,180,0.0,0.0,52,0.00,,,0.00,WUHU21623XXSP,2013-01-16 21:06:00,
2013-01-16 16:11:00,78.1,59.2,30.27,SSW,202,0.0,0.0,52,0.00,,,0.00,WUHU21623XXSP,2013-01-16 21:11:00,
2013-01-16 16:16:00,78.0,59.6,30.27,SW,225,0.0,0.0,53,0.00,,,0.00,WUHU21623XXSP,2013-01-16 21:16:00,
2013-01-16 16:21:00,77.4,59.1,30.26,South,180,0.0,0.0,53,0.00,,,0.00,WUHU21623XXSP,2013-01-16 21:21:00,
2013-01-16 16:26:00,77.2,59.4,30.26,WSW,247,0.0,0.0,54,0.00,,,0.00,WUHU21623XXSP,2013-01-16 21:26:00,
2013-01-16 16:31:00,76.9,59.7,30.27,SSW,202,0.0,0.0,55,0.00,,,0.00,WUHU21623XXSP,2013-01-16 21:31:00,
2013-01-16 16:36:00,76.5,59.3,30.27,West,270,0.0,0.0,55,0.00,,,0.00,WUHU21623XXSP,2013-01-16 21:36:00,
2013-01-16 16:41:00,76.2,59.5,30.27,South,180,0.0,0.0,56,0.00,,,0.00,WUHU21623XXSP,2013-01-16 21:41:00,
2013-01-16 16:46:00,75.8,59.7,30.27,SW,225,0.0,0.0,57,0.00,,,0.00,WUHU21623XXSP,2013-01-16 21:46:00,
2013-01-16 16:51:00,75.6,60.0,30.27,SW,225,0.0,0.0,58,0.00,,,0.00,WUHU21623XXSP,2013-01-16 21:51:00,
2013-01-16 16:56:00,75.1,60.0,30.27,WSW,247,0.0,0.0,59,0.00,,,0.00,WUHU21623XXSP,2013-01-16 21:56:00,
2013-01-16 17:01:00,74.5,60.4,30.27,SW,225,0.0,0.0,61,0.00,,,0.00,WUHU21623XXSP,2013-01-16 22:01:00,
2013-01-16 17:06:00,74.2,60.1,30.26,SW,225,0.0,0.0,61,0.00,,,0.00,WUHU21623XXSP,2013-01-16 22:06:00,
2013-01-16 17:11:00,73.8,60.2,30.26,SSW,202,0.0,0.0,62,0.00,,,0.00,WUHU21623XXSP,2013-01-16 22:11:00,
2013-01-16 17:16:00,73.3,60.2,30.26,SSE,157,0.0,0.0,63,0.00,,,0.00,WUHU21623XXSP,2013-01-16 22:16:00,
2013-01-16 17:21:00,72.9,59.8,30.26,SSE,157,0.0,0.0,63,0.00,,,0.00,WUHU21623XXSP,2013-01-16 22:21:00,
2013-01-16 17:26:00,72.6,59.9,30.27,SSW,202,0.0,0.0,64,0.00,,,0.00,WUHU21623XXSP,2013-01-16 22:26:00,
2013-01-16 17:31:00,72.4,60.2,30.27,SW,225,0.0,0.0,65,0.00,,,0.00,WUHU21623XXSP,2013-01-16 22:31:00,
2013-01-16 17:36:00,71.8,60.0,30.27,SSW,202,0.0,0.0,66,0.00,,,0.00,WUHU21623XXSP,2013-01-16 22:36:00,
2013-01-16 17:41:00,71.5,59.7,30.27,WSW,247,0.0,0.0,66,0.00,,,0.00,WUHU21623XXSP,2013-01-16 22:41:00,
2013-01-16 17:46:00,71.1,59.8,30.27,South,180,0.0,0.0,67,0.00,,,0.00,WUHU21623XXSP,2013-01-16 22:46:00,
2013-01-16 17:51:00,70.9,59.6,30.28,SW,225,0.0,0.0,67,0.00,,,0.00,WUHU21623XXSP,2013-01-16 22:51:00,
2013-01-16 17:56:00,70.6,59.7,30.28,SW,225,0.0,0.0,68,0.00,,,0.00,WUHU21623XXSP,2013-01-16 22:56:00,
2013-01-16 18:01:00,70.2,59.3,30.28,SSW,202,0.0,0.0,68,0.00,,,0.00,WUHU21623XXSP,2013-01-16 23:01:00,
2013-01-16 18:06:00,70.0,59.5,30.28,SSW,202,0.0,0.0,69,0.00,,,0.00,WUHU21623XXSP,2013-01-16 23:06:00,
2013-01-16 18:11:00,69.7,59.3,30.28,SSE,157,0.0,0.0,69,0.00,,,0.00,WUHU21623XXSP,2013-01-16 23:11:00,
2013-01-16 18:16:00,69.5,59.5,30.27,South,180,0.0,0.0,70,0.00,,,0.00,WUHU21623XXSP,2013-01-16 23:16:00,
2013-01-16 18:21:00,69.1,59.5,30.27,South,180,0.0,0.0,71,0.00,,,0.00,WUHU21623XXSP,2013-01-16 23:21:00,
2013-01-16 18:27:00,69.0,59.8,30.27,South,180,0.0,0.0,72,0.00,,,0.00,WUHU21623XXSP,2013-01-16 23:27:00,
2013-01-16 18:32:00,68.8,59.6,30.28,SSE,157,0.0,0.0,72,0.00,,,0.00,WUHU21623XXSP,2013-01-16 23:32:00,
2013-01-16 18:37:00,68.4,59.6,30.28,SSE,157,0.0,0.0,73,0.00,,,0.00,WUHU21623XXSP,2013-01-16 23:37:00,
2013-01-16 18:42:00,68.2,59.7,30.28,SSE,157,0.0,0.0,74,0.00,,,0.00,WUHU21623XXSP,2013-01-16 23:42:00,
2013-01-16 18:47:00,68.1,59.6,30.28,SSE,157,0.0,0.0,74,0.00,,,0.00,WUHU21623XXSP,2013-01-16 23:47:00,
2013-01-16 18:52:00,67.9,59.8,30.28,SSE,157,0.0,0.0,75,0.00,,,0.00,WUHU21623XXSP,2013-01-16 23:52:00,
2013-01-16 18:57:00,67.5,59.8,30.28,SSE,157,0.0,0.0,76,0.00,,,0.00,WUHU21623XXSP,2013-01-16 23:57:00,
2013-01-16 19:02:00,67.3,59.6,30.28,SSW,202,0.0,0.0,76,0.00,,,0.00,WUHU21623XXSP,2013-01-17 00:02:00,
2013-01-16 19:07:00,67.3,59.9,30.28,SW,225,0.0,0.0,77,0.00,,,0.00,WUHU21623XXSP,2013-01-17 00:07:00,
2013-01-16 19:12:00,67.2,60.2,30.28,SW,225,0.0,0.0,78,0.00,,,0.00,WUHU21623XXSP,2013-01-17 00:12:00,
2013-01-16 19:17:00,67.0,60.0,30.28,SW,225,0.0,0.0,78,0.00,,,0.00,WUHU21623XXSP,2013-01-17 00:17:00,
2013-01-16 19:22:00,66.6,59.6,30.28,SW,225,0.0,0.0,78,0.00,,,0.00,WUHU21623XXSP,2013-01-17 00:22:00,
2013-01-16 19:27:00,66.6,60.0,30.28,SW,225,0.0,0.0,79,0.00,,,0.00,WUHU21623XXSP,2013-01-17 00:27:00,
2013-01-16 19:32:00,66.6,60.3,30.28,SW,225,0.0,0.0,80,0.00,,,0.00,WUHU21623XXSP,2013-01-17 00:32:00,
2013-01-16 19:37:00,66.4,60.1,30.29,SW,225,0.0,0.0,80,0.00,,,0.00,WUHU21623XXSP,2013-01-17 00:37:00,
2013-01-16 19:42:00,66.4,60.5,30.29,SW,225,0.0,0.0,81,0.00,,,0.00,WUHU21623XXSP,2013-01-17 00:42:00,
2013-01-16 19:47:00,66.3,60.4,30.29,SW,225,0.0,0.0,81,0.00,,,0.00,WUHU21623XXSP,2013-01-17 00:47:00,
2013-01-16 19:52:00,66.1,60.2,30.29,SW,225,0.0,0.0,81,0.00,,,0.00,WUHU21623XXSP,2013-01-17 00:52:00,
2013-01-16 19:57:00,65.9,60.3,30.29,SW,225,0.0,0.0,82,0.00,,,0.00,WUHU21623XXSP,2013-01-17 00:57:00,
2013-01-16 20:02:00,65.7,60.1,30.29,SW,225,0.0,0.0,82,0.00,,,0.00,WUHU21623XXSP,2013-01-17 01:02:00,
2013-01-16 20:07:00,65.7,60.1,30.29,SW,225,0.0,0.0,82,0.00,,,0.00,WUHU21623XXSP,2013-01-17 01:07:00,
2013-01-16 20:12:00,65.5,59.9,30.29,SW,225,0.0,0.0,82,0.00,,,0.00,WUHU21623XXSP,2013-01-17 01:12:00,
2013-01-16 20:17:00,65.4,60.1,30.29,SW,225,0.0,0.0,83,0.00,,,0.00,WUHU21623XXSP,2013-01-17 01:17:00,
2013-01-16 20:22:00,65.2,59.9,30.29,SW,225,0.0,0.0,83,0.00,,,0.00,WUHU21623XXSP,2013-01-17 01:22:00,
2013-01-16 20:27:00,65.0,59.7,30.29,SSE,157,0.0,0.0,83,0.00,,,0.00,WUHU21623XXSP,2013-01-17 01:27:00,
2013-01-16 20:32:00,64.8,59.9,30.29,SSE,157,0.0,0.0,84,0.00,,,0.00,WUHU21623XXSP,2013-01-17 01:32:00,
2013-01-16 20:37:00,64.8,59.9,30.29,SSE,157,0.0,0.0,84,0.00,,,0.00,WUHU21623XXSP,2013-01-17 01:37:00,
2013-01-16 20:42:00,64.6,60.0,30.29,SSE,157,0.0,0.0,85,0.00,,,0.00,WUHU21623XXSP,2013-01-17 01:42:00,
2013-01-16 20:47:00,64.6,60.0,30.29,SSE,157,0.0,0.0,85,0.00,,,0.00,WUHU21623XXSP,2013-01-17 01:47:00,
2013-01-16 20:52:00,64.6,60.0,30.29,SSE,157,0.0,0.0,85,0.00,,,0.00,WUHU21623XXSP,2013-01-17 01:52:00,
2013-01-16 20:57:00,64.3,59.7,30.29,SSE,157,0.0,0.0,85,0.00,,,0.00,WUHU21623XXSP,2013-01-17 01:57:00,
2013-01-16 21:02:00,64.3,59.7,30.29,SSE,157,0.0,0.0,85,0.00,,,0.00,WUHU21623XXSP,2013-01-17 02:02:00,
2013-01-16 21:07:00,64.1,59.8,30.29,SSE,157,0.0,0.0,86,0.00,,,0.00,WUHU21623XXSP,2013-01-17 02:07:00,
2013-01-16 21:12:00,63.9,59.6,30.29,SSE,157,0.0,0.0,86,0.00,,,0.00,WUHU21623XXSP,2013-01-17 02:12:00,
2013-01-16 21:17:00,63.9,59.6,30.29,SSE,157,0.0,0.0,86,0.00,,,0.00,WUHU21623XXSP,2013-01-17 02:17:00,
2013-01-16 21:22:00,63.7,59.4,30.29,SSE,157,0.0,0.0,86,0.00,,,0.00,WUHU21623XXSP,2013-01-17 02:22:00,
2013-01-16 21:27:00,63.6,59.3,30.29,SSE,157,0.0,0.0,86,0.00,,,0.00,WUHU21623XXSP,2013-01-17 02:27:00,
2013-01-16 21:32:00,63.4,59.5,30.29,SSE,157,0.0,0.0,87,0.00,,,0.00,WUHU21623XXSP,2013-01-17 02:32:00,
2013-01-16 21:37:00,63.2,59.3,30.29,SSE,157,0.0,0.0,87,0.00,,,0.00,WUHU21623XXSP,2013-01-17 02:37:00,
2013-01-16 21:42:00,63.0,59.1,30.29,SSE,157,0.0,0.0,87,0.00,,,0.00,WUHU21623XXSP,2013-01-17 02:42:00,
2013-01-16 21:47:00,63.0,59.1,30.29,SSE,157,0.0,0.0,87,0.00,,,0.00,WUHU21623XXSP,2013-01-17 02:47:00,
2013-01-16 21:52:00,63.0,59.1,30.29,SSE,157,0.0,0.0,87,0.00,,,0.00,WUHU21623XXSP,2013-01-17 02:52:00,
2013-01-16 21:57:00,62.8,59.2,30.29,SSE,157,0.0,0.0,88,0.00,,,0.00,WUHU21623XXSP,2013-01-17 02:57:00,
2013-01-16 22:02:00,62.7,59.1,30.29,SSE,157,0.0,0.0,88,0.00,,,0.00,WUHU21623XXSP,2013-01-17 03:02:00,
2013-01-16 22:07:00,62.5,58.9,30.29,SSE,157,0.0,0.0,88,0.00,,,0.00,WUHU21623XXSP,2013-01-17 03:07:00,
2013-01-16 22:12:00,62.3,58.7,30.29,SSE,157,0.0,0.0,88,0.00,,,0.00,WUHU21623XXSP,2013-01-17 03:12:00,
2013-01-16 22:17:00,62.1,58.5,30.29,SSE,157,0.0,0.0,88,0.00,,,0.00,WUHU21623XXSP,2013-01-17 03:17:00,
2013-01-16 22:22:00,62.1,58.5,30.29,SSE,157,0.0,0.0,88,0.00,,,0.00,WUHU21623XXSP,2013-01-17 03:22:00,
2013-01-16 22:27:00,61.9,58.3,30.29,SSE,157,0.0,0.0,88,0.00,,,0.00,WUHU21623XXSP,2013-01-17 03:27:00,
2013-01-16 22:32:00,61.8,58.5,30.29,SSE,157,0.0,0.0,89,0.00,,,0.00,WUHU21623XXSP,2013-01-17 03:32:00,
2013-01-16 22:37:00,61.6,58.3,30.28,SSE,157,0.0,0.0,89,0.00,,,0.00,WUHU21623XXSP,2013-01-17 03:37:00,
2013-01-16 22:42:00,61.4,58.1,30.29,SSE,157,0.0,0.0,89,0.00,,,0.00,WUHU21623XXSP,2013-01-17 03:42:00,
2013-01-16 22:47:00,61.2,57.9,30.28,SSE,157,0.0,0.0,89,0.00,,,0.00,WUHU21623XXSP,2013-01-17 03:47:00,
2013-01-16 22:52:00,61.2,57.9,30.28,SSE,157,0.0,0.0,89,0.00,,,0.00,WUHU21623XXSP,2013-01-17 03:52:00,
2013-01-16 22:57:00,61.2,57.9,30.28,SSE,157,0.0,0.0,89,0.00,,,0.00,WUHU21623XXSP,2013-01-17 03:57:00,
2013-01-16 23:02:00,61.0,57.7,30.28,SSE,157,0.0,0.0,89,0.00,,,0.00,WUHU21623XXSP,2013-01-17 04:02:00,
2013-01-16 23:07:00,61.0,57.7,30.28,SSE,157,0.0,0.0,89,0.00,,,0.00,WUHU21623XXSP,2013-01-17 04:07:00,
2013-01-16 23:12:00,60.7,57.4,30.28,SSE,157,0.0,0.0,89,0.00,,,0.00,WUHU21623XXSP,2013-01-17 04:12:00,
2013-01-16 23:17:00,60.7,57.4,30.28,SSE,157,0.0,0.0,89,0.00,,,0.00,WUHU21623XXSP,2013-01-17 04:17:00,
2013-01-16 23:23:00,60.5,57.5,30.28,SSE,157,0.0,0.0,90,0.00,,,0.00,WUHU21623XXSP,2013-01-17 04:23:00,
2013-01-16 23:28:00,60.5,57.5,30.29,SSE,157,0.0,0.0,90,0.00,,,0.00,WUHU21623XXSP,2013-01-17 04:28:00,
2013-01-16 23:32:00,60.3,57.3,30.28,SSE,157,0.0,0.0,90,0.00,,,0.00,WUHU21623XXSP,2013-01-17 04:32:00,
2013-01-16 23:38:00,60.5,57.5,30.28,SSE,157,0.0,0.0,90,0.00,,,0.00,WUHU21623XXSP,2013-01-17 04:38:00,
2013-01-16 23:43:00,60.3,57.3,30.28,SSE,157,0.0,0.0,90,0.00,,,0.00,WUHU21623XXSP,2013-01-17 04:43:00,
2013-01-16 23:48:00,60.1,57.1,30.28,SSE,157,0.0,0.0,90,0.00,,,0.00,WUHU21623XXSP,2013-01-17 04:48:00,
2013-01-16 23:53:00,60.1,57.1,30.29,SSE,157,0.0,0.0,90,0.00,,,0.00,WUHU21623XXSP,2013-01-17 04:53:00,
2013-01-16 23:58:00,60.1,57.1,30.29,SSE,157,0.0,0.0,90,0.00,,,0.00,WUHU21623XXSP,2013-01-17 04:58:00,